This is the latest recevied weather packets stored in our database for station/object W1SCW. If no packets are shown the sender has not sent any weather packets the latest 10 day(s).
| Time | Temp. | Humidity | Pressure | Rain* | Wind** | Luminosity | Snow |
|---|---|---|---|---|---|---|---|
| 1777726287 | 12.78° C | 92% | 1017.7 hPa | 0 mm | - | 107 W/m² | - |
| 1777725983 | 12.78° C | 92% | 1017.7 hPa | 0 mm | - | 96 W/m² | - |
| 1777725680 | 12.78° C | 93% | 1017.6 hPa | 0 mm | - | 85 W/m² | - |
| 1777725379 | 12.22° C | 93% | 1017.7 hPa | 0 mm | - | 75 W/m² | - |
| 1777725075 | 12.22° C | 95% | 1017.5 hPa | 0 mm | - | 66 W/m² | - |
| 1777724772 | 12.22° C | 96% | 1017.2 hPa | 0 mm | - | 58 W/m² | - |
| 1777724469 | 11.67° C | 97% | 1017.6 hPa | 0 mm | - | 50 W/m² | - |
| 1777724167 | 11.67° C | 97% | 1017.2 hPa | 0 mm | - | 42 W/m² | - |
| 1777723864 | 11.11° C | 98% | 1017.2 hPa | 0 mm | - | 26 W/m² | - |
| 1777723560 | 11.11° C | 98% | 1017.1 hPa | 0 mm | - | 22 W/m² | - |
| 1777723257 | 11.11° C | 98% | 1017.2 hPa | 0 mm | - | 18 W/m² | - |
| 1777722956 | 11.11° C | 98% | 1017.3 hPa | 0 mm | - | 14 W/m² | - |
| 1777722646 | 11.11° C | 98% | 1016.8 hPa | 0 mm | - | 10 W/m² | - |
| 1777722342 | 11.11° C | 97% | 1017 hPa | 0 mm | - | 6 W/m² | - |
| 1777722039 | 11.11° C | 97% | 1016.9 hPa | 0 mm | - | 4 W/m² | - |
| 1777721737 | 11.11° C | 97% | 1016.7 hPa | 0 mm | - | 2 W/m² | - |
| 1777721436 | 11.11° C | 97% | 1016.6 hPa | 0 mm | - | 1 W/m² | - |
| 1777721133 | 11.11° C | 97% | 1016.8 hPa | 0 mm | - | 0 W/m² | - |
| 1777720830 | 11.11° C | 97% | 1016.7 hPa | 0 mm | - | 0 W/m² | - |
| 1777720527 | 11.11° C | 97% | 1016.5 hPa | 0 mm | - | 0 W/m² | - |
| 1777720225 | 11.67° C | 96% | 1016.5 hPa | 0 mm | - | 0 W/m² | - |
| 1777719922 | 11.67° C | 96% | 1016.6 hPa | 0 mm | - | 0 W/m² | - |
| 1777719620 | 11.67° C | 96% | 1016.5 hPa | 0 mm | - | 0 W/m² | - |
| 1777719317 | 11.67° C | 95% | 1016.4 hPa | 0 mm | - | 0 W/m² | - |
| 1777719014 | 11.67° C | 95% | 1016.3 hPa | 0 mm | - | 0 W/m² | - |
* Rain latest hour (hover to see other rain measurements)
** Current wind speed in m/s (hover to see current wind gust speed)